User: anonymous   Login
Location: Unspecified
(0.0000°N, 0.0000°E)
Time: 09:49:37
(UTC+00:00)
Language:

SMS 2 - Orbit

View from above orbital plane
View from above orbital plane
View from above satellite
View from above satellite

Ground track
Ground track

The orbit data is extracted from the following two-line orbital elements,

1  7648U 75011A   18264.75711229 +.00000099 +00000-0 +00000-0 0  9992
2  7648 012.0043 316.2357 0011076 200.9775 171.3579 00.99506623107561
Epoch (UTC): 21 September 2018 18:10:14
Eccentricity: 0.0011076
inclination: 12.0043°
perigee height: 35955 km
apogee height: 36049 km
right ascension of ascending node: 316.2357°
argument of perigee: 200.9775°
revolutions per day: 0.99506623
mean anomaly at epoch: 171.3579°
orbit number at epoch: 10756

The dashed part of the orbit path shows where the satellite is in the earth's shadow,  

DLR